Time,TemperatureF,DewpointF,PressureIn,WindDirection,WindDirectionDegrees,WindSpeedMPH,WindSpeedGustMPH,Humidity,HourlyPrecipIn,Conditions,Clouds,dailyrainin,SoftwareType,DateUTC
2013-06-29 04:18:00,59.9,52.7,29.50,North,-999,0.0,0.0,77,0.00,,,-99.99,FreeWX 2.04,2013-06-29 08:18:00,
2013-06-29 05:59:00,59.2,52.0,29.53,North,-999,0.0,0.0,77,0.00,,,-99.99,FreeWX 2.04,2013-06-29 09:59:00,
2013-06-29 06:04:00,59.2,52.0,29.53,North,-999,0.0,0.0,77,0.00,,,-99.99,FreeWX 2.04,2013-06-29 10:04:00,
2013-06-29 06:09:00,59.2,52.0,29.53,North,-999,0.0,0.0,77,0.00,,,-99.99,FreeWX 2.04,2013-06-29 10:09:00,
2013-06-29 06:14:00,59.2,52.0,29.53,North,-999,0.0,0.0,77,0.00,,,-99.99,FreeWX 2.04,2013-06-29 10:14:00,
2013-06-29 06:19:00,59.2,52.0,29.53,North,-999,0.0,0.0,77,0.00,,,-99.99,FreeWX 2.04,2013-06-29 10:19:00,
2013-06-29 06:24:00,59.2,52.0,29.53,North,-999,0.0,0.0,77,0.00,,,-99.99,FreeWX 2.04,2013-06-29 10:24:00,
2013-06-29 06:29:00,59.2,52.3,29.53,North,-999,0.0,0.0,78,0.00,,,-99.99,FreeWX 2.04,2013-06-29 10:29:00,
2013-06-29 06:34:00,59.2,52.3,29.53,North,-999,0.0,0.0,78,0.00,,,-99.99,FreeWX 2.04,2013-06-29 10:34:00,
2013-06-29 06:39:00,59.4,52.5,29.53,North,-999,0.0,0.0,78,0.00,,,-99.99,FreeWX 2.04,2013-06-29 10:39:00,
2013-06-29 06:44:00,59.4,52.5,29.53,North,-999,0.0,0.0,78,0.00,,,-99.99,FreeWX 2.04,2013-06-29 10:44:00,
2013-06-29 06:49:00,59.5,53.1,29.53,North,-999,0.0,0.0,79,0.00,,,-99.99,FreeWX 2.04,2013-06-29 10:49:00,
2013-06-29 06:54:00,59.7,53.2,29.53,North,-999,0.0,0.0,79,0.00,,,-99.99,FreeWX 2.04,2013-06-29 10:54:00,
2013-06-29 06:59:00,59.7,53.2,29.53,North,-999,0.0,0.0,79,0.00,,,-99.99,FreeWX 2.04,2013-06-29 10:59:00,
2013-06-29 07:04:00,59.7,53.2,29.53,North,-999,0.0,0.0,79,0.00,,,-99.99,FreeWX 2.04,2013-06-29 11:04:00,
2013-06-29 07:09:00,59.9,53.1,29.53,North,-999,0.0,0.0,78,0.00,,,-99.99,FreeWX 2.04,2013-06-29 11:09:00,
2013-06-29 07:14:00,60.1,53.6,29.53,North,-999,0.0,0.0,79,0.00,,,-99.99,FreeWX 2.04,2013-06-29 11:14:00,
2013-06-29 07:19:00,60.3,53.8,29.53,North,-999,0.0,0.0,79,0.00,,,-99.99,FreeWX 2.04,2013-06-29 11:19:00,
2013-06-29 07:24:00,60.4,54.0,29.53,North,-999,0.0,0.0,79,0.00,,,-99.99,FreeWX 2.04,2013-06-29 11:24:00,
2013-06-29 07:29:00,60.8,54.3,29.53,North,-999,0.0,0.0,79,0.00,,,-99.99,FreeWX 2.04,2013-06-29 11:29:00,
2013-06-29 07:34:00,61.2,54.9,29.53,North,-999,0.0,0.0,80,0.00,,,-99.99,FreeWX 2.04,2013-06-29 11:34:00,
2013-06-29 07:39:00,61.5,55.2,29.53,North,-999,0.0,0.0,80,0.00,,,-99.99,FreeWX 2.04,2013-06-29 11:39:00,
2013-06-29 07:44:00,61.9,55.6,29.53,North,-999,0.0,3.6,80,0.00,,,-99.99,FreeWX 2.04,2013-06-29 11:44:00,
2013-06-29 07:49:00,62.4,56.1,29.53,North,-999,0.0,0.0,80,0.00,,,-99.99,FreeWX 2.04,2013-06-29 11:49:00,
2013-06-29 07:54:00,63.1,57.2,29.53,North,-999,0.0,0.0,81,0.00,,,-99.99,FreeWX 2.04,2013-06-29 11:54:00,
2013-06-29 07:59:00,64.2,58.6,29.53,North,-999,0.0,0.0,82,0.00,,,-99.99,FreeWX 2.04,2013-06-29 11:59:00,
2013-06-29 08:04:00,64.4,58.5,29.53,North,-999,0.0,0.0,81,0.00,,,-99.99,FreeWX 2.04,2013-06-29 12:04:00,
2013-06-29 08:09:00,64.2,57.9,29.53,North,-999,0.0,0.0,80,0.00,,,-99.99,FreeWX 2.04,2013-06-29 12:09:00,
2013-06-29 08:14:00,64.6,58.3,29.53,North,-999,0.0,3.6,80,0.00,,,-99.99,FreeWX 2.04,2013-06-29 12:14:00,
2013-06-29 08:19:00,64.9,58.3,29.53,North,-999,0.0,3.6,79,0.00,,,-99.99,FreeWX 2.04,2013-06-29 12:19:00,
2013-06-29 08:24:00,65.5,58.5,29.53,North,-999,0.0,0.0,78,0.00,,,-99.99,FreeWX 2.04,2013-06-29 12:24:00,
2013-06-29 08:29:00,65.7,56.3,29.53,East,86,1.0,5.4,72,0.00,,,-99.99,FreeWX 2.04,2013-06-29 12:29:00,
2013-06-29 08:34:00,66.0,55.9,29.53,ESE,108,1.0,4.9,70,0.00,,,-99.99,FreeWX 2.04,2013-06-29 12:34:00,
2013-06-29 08:39:00,66.0,52.7,29.53,North,-999,0.0,8.3,62,0.00,,,-99.99,FreeWX 2.04,2013-06-29 12:39:00,
2013-06-29 08:44:00,66.0,50.4,29.53,East,99,1.0,6.7,57,0.00,,,-99.99,FreeWX 2.04,2013-06-29 12:44:00,
2013-06-29 08:49:00,65.5,49.8,29.53,SSE,148,1.0,5.4,57,0.00,,,-99.99,FreeWX 2.04,2013-06-29 12:49:00,
2013-06-29 08:55:00,65.3,47.3,29.53,South,189,1.0,6.9,52,0.00,,,-99.99,FreeWX 2.04,2013-06-29 12:55:00,
2013-06-29 09:00:00,65.5,48.4,29.53,ESE,104,1.0,0.0,54,0.00,,,-99.99,FreeWX 2.04,2013-06-29 13:00:00,
2013-06-29 09:05:00,66.4,49.3,29.53,North,-999,0.0,6.3,54,0.00,,,-99.99,FreeWX 2.04,2013-06-29 13:05:00,
2013-06-29 09:10:00,66.9,46.0,29.56,East,80,1.0,8.3,47,0.00,,,-99.99,FreeWX 2.04,2013-06-29 13:10:00,
2013-06-29 09:15:00,68.4,46.8,29.56,ESE,105,2.0,5.4,46,0.00,,,-99.99,FreeWX 2.04,2013-06-29 13:15:00,
2013-06-29 09:20:00,70.3,47.3,29.56,ESE,119,1.0,7.4,44,0.00,,,-99.99,FreeWX 2.04,2013-06-29 13:20:00,
2013-06-29 09:25:00,70.2,40.5,29.56,ESE,114,2.0,7.8,34,0.00,,,-99.99,FreeWX 2.04,2013-06-29 13:25:00,
2013-06-29 09:30:00,70.0,41.0,29.56,ESE,110,2.0,8.3,35,0.00,,,-99.99,FreeWX 2.04,2013-06-29 13:30:00,
2013-06-29 09:35:00,69.1,39.6,29.56,ESE,108,2.0,6.3,34,0.00,,,-99.99,FreeWX 2.04,2013-06-29 13:35:00,
2013-06-29 09:40:00,68.5,40.5,29.56,ESE,104,2.0,5.4,36,0.00,,,-99.99,FreeWX 2.04,2013-06-29 13:40:00,
2013-06-29 09:45:00,69.4,41.4,29.56,ESE,105,2.0,4.9,36,0.00,,,-99.99,FreeWX 2.04,2013-06-29 13:45:00,
2013-06-29 09:50:00,70.7,39.4,29.56,ESE,105,2.0,6.7,32,0.00,,,-99.99,FreeWX 2.04,2013-06-29 13:50:00,
2013-06-29 09:55:00,70.7,39.4,29.56,ESE,110,2.0,7.4,32,0.00,,,-99.99,FreeWX 2.04,2013-06-29 13:55:00,
2013-06-29 10:00:00,71.1,39.7,29.56,East,101,3.0,5.4,32,0.00,,,-99.99,FreeWX 2.04,2013-06-29 14:00:00,
2013-06-29 10:05:00,70.5,40.1,29.56,East,87,1.0,4.0,33,0.00,,,-99.99,FreeWX 2.04,2013-06-29 14:05:00,
2013-06-29 10:10:00,69.4,39.0,29.56,North,-999,0.0,7.8,33,0.00,,,-99.99,FreeWX 2.04,2013-06-29 14:10:00,
2013-06-29 10:15:00,68.7,39.9,29.56,North,-999,0.0,4.0,35,0.00,,,-99.99,FreeWX 2.04,2013-06-29 14:15:00,
2013-06-29 10:20:00,68.0,39.4,29.56,North,-999,0.0,4.5,35,0.00,,,-99.99,FreeWX 2.04,2013-06-29 14:20:00,
2013-06-29 10:25:00,67.6,40.5,29.56,ESE,117,1.0,6.3,37,0.00,,,-99.99,FreeWX 2.04,2013-06-29 14:25:00,
2013-06-29 10:30:00,67.8,41.4,29.56,ESE,119,1.0,6.3,38,0.00,,,-99.99,FreeWX 2.04,2013-06-29 14:30:00,
2013-06-29 10:35:00,68.4,42.4,29.56,East,88,1.0,5.8,39,0.00,,,-99.99,FreeWX 2.04,2013-06-29 14:35:00,
2013-06-29 10:40:00,68.5,41.2,29.56,East,88,1.0,7.4,37,0.00,,,-99.99,FreeWX 2.04,2013-06-29 14:40:00,
2013-06-29 10:45:00,69.3,41.9,29.56,East,97,1.0,6.3,37,0.00,,,-99.99,FreeWX 2.04,2013-06-29 14:45:00,
2013-06-29 10:50:00,69.4,41.4,29.56,East,100,1.0,5.8,36,0.00,,,-99.99,FreeWX 2.04,2013-06-29 14:50:00,
2013-06-29 10:55:00,69.3,40.5,29.56,East,88,1.0,6.3,35,0.00,,,-99.99,FreeWX 2.04,2013-06-29 14:55:00,
2013-06-29 11:00:00,70.3,42.1,29.56,East,81,2.0,5.8,36,0.00,,,-99.99,FreeWX 2.04,2013-06-29 15:00:00,
2013-06-29 11:05:00,72.1,41.4,29.56,East,83,2.0,5.4,33,0.00,,,-99.99,FreeWX 2.04,2013-06-29 15:05:00,
2013-06-29 11:10:00,73.2,40.8,29.56,ENE,72,2.0,5.8,31,0.00,,,-99.99,FreeWX 2.04,2013-06-29 15:10:00,
2013-06-29 11:15:00,73.8,41.2,29.56,ESE,120,1.0,4.9,31,0.00,,,-99.99,FreeWX 2.04,2013-06-29 15:15:00,
2013-06-29 11:20:00,73.6,41.0,29.56,ESE,109,2.0,7.4,31,0.00,,,-99.99,FreeWX 2.04,2013-06-29 15:20:00,
2013-06-29 11:25:00,72.9,39.6,29.56,East,99,3.0,7.8,30,0.00,,,-99.99,FreeWX 2.04,2013-06-29 15:25:00,
2013-06-29 11:30:00,72.7,40.3,29.56,ESE,109,3.0,6.7,31,0.00,,,-99.99,FreeWX 2.04,2013-06-29 15:30:00,
2013-06-29 11:35:00,73.0,39.7,29.56,SE,130,2.0,5.8,30,0.00,,,-99.99,FreeWX 2.04,2013-06-29 15:35:00,
2013-06-29 11:40:00,72.7,39.4,29.59,SE,141,2.0,8.7,30,0.00,,,-99.99,FreeWX 2.04,2013-06-29 15:40:00,
2013-06-29 11:45:00,72.9,37.8,29.59,East,92,2.0,7.8,28,0.00,,,-99.99,FreeWX 2.04,2013-06-29 15:45:00,
2013-06-29 11:50:00,72.7,37.8,29.59,East,100,3.0,8.7,28,0.00,,,-99.99,FreeWX 2.04,2013-06-29 15:50:00,
2013-06-29 11:55:00,72.7,39.4,29.59,ESE,109,3.0,8.3,30,0.00,,,-99.99,FreeWX 2.04,2013-06-29 15:55:00,
2013-06-29 12:00:00,73.4,39.2,29.59,ESE,117,1.0,4.5,29,0.00,,,-99.99,FreeWX 2.04,2013-06-29 16:00:00,
2013-06-29 12:05:00,73.9,38.8,29.59,ESE,102,1.0,6.3,28,0.00,,,-99.99,FreeWX 2.04,2013-06-29 16:05:00,
2013-06-29 12:10:00,73.9,38.8,29.59,East,96,2.0,9.2,28,0.00,,,-99.99,FreeWX 2.04,2013-06-29 16:10:00,
2013-06-29 12:15:00,74.3,36.1,29.59,ESE,106,3.0,6.9,25,0.00,,,-99.99,FreeWX 2.04,2013-06-29 16:15:00,
2013-06-29 12:20:00,74.7,36.5,29.59,ESE,115,3.0,5.4,25,0.00,,,-99.99,FreeWX 2.04,2013-06-29 16:20:00,
2013-06-29 12:25:00,74.1,36.0,29.59,ESE,112,3.0,7.8,25,0.00,,,-99.99,FreeWX 2.04,2013-06-29 16:25:00,
2013-06-29 12:30:00,73.2,38.1,29.59,ESE,106,3.0,9.6,28,0.00,,,-99.99,FreeWX 2.04,2013-06-29 16:30:00,
2013-06-29 12:35:00,72.5,40.1,29.59,ESE,103,3.0,6.3,31,0.00,,,-99.99,FreeWX 2.04,2013-06-29 16:35:00,
2013-06-29 12:40:00,72.9,40.5,29.59,ESE,109,2.0,5.8,31,0.00,,,-99.99,FreeWX 2.04,2013-06-29 16:40:00,
2013-06-29 12:45:00,72.7,38.7,29.59,ESE,116,2.0,6.9,29,0.00,,,-99.99,FreeWX 2.04,2013-06-29 16:45:00,
2013-06-29 12:50:00,72.1,39.7,29.59,ESE,104,3.0,10.5,31,0.00,,,-99.99,FreeWX 2.04,2013-06-29 16:50:00,
2013-06-29 12:55:00,72.7,41.2,29.59,ESE,110,3.0,8.7,32,0.00,,,-99.99,FreeWX 2.04,2013-06-29 16:55:00,
2013-06-29 13:00:00,73.4,39.2,29.59,ESE,121,3.0,6.7,29,0.00,,,-99.99,FreeWX 2.04,2013-06-29 17:00:00,
2013-06-29 13:05:00,73.4,40.1,29.59,ESE,107,3.0,7.4,30,0.00,,,-99.99,FreeWX 2.04,2013-06-29 17:05:00,
2013-06-29 13:10:00,74.3,41.7,29.59,East,92,2.0,6.7,31,0.00,,,-99.99,FreeWX 2.04,2013-06-29 17:10:00,
2013-06-29 13:15:00,75.6,39.2,29.59,East,92,2.0,5.8,27,0.00,,,-99.99,FreeWX 2.04,2013-06-29 17:15:00,
2013-06-29 13:20:00,75.9,36.5,29.59,East,100,2.0,6.9,24,0.00,,,-99.99,FreeWX 2.04,2013-06-29 17:20:00,
2013-06-29 13:25:00,74.5,36.3,29.59,ESE,102,3.0,8.7,25,0.00,,,-99.99,FreeWX 2.04,2013-06-29 17:25:00,
2013-06-29 13:30:00,74.3,38.1,29.59,ESE,112,4.0,7.4,27,0.00,,,-99.99,FreeWX 2.04,2013-06-29 17:30:00,
2013-06-29 13:35:00,74.3,36.1,29.59,ESE,117,3.0,6.9,25,0.00,,,-99.99,FreeWX 2.04,2013-06-29 17:35:00,
2013-06-29 13:40:00,74.8,36.7,29.59,ESE,105,3.0,7.8,25,0.00,,,-99.99,FreeWX 2.04,2013-06-29 17:40:00,
2013-06-29 13:45:00,75.2,38.8,29.59,ESE,108,3.0,6.9,27,0.00,,,-99.99,FreeWX 2.04,2013-06-29 17:45:00,
2013-06-29 13:50:00,75.2,37.9,29.59,ESE,114,3.0,7.8,26,0.00,,,-99.99,FreeWX 2.04,2013-06-29 17:50:00,
2013-06-29 13:55:00,75.2,37.9,29.59,ESE,104,2.0,5.4,26,0.00,,,-99.99,FreeWX 2.04,2013-06-29 17:55:00,
2013-06-29 14:00:00,75.2,38.8,29.59,East,101,2.0,6.3,27,0.00,,,-99.99,FreeWX 2.04,2013-06-29 18:00:00,
2013-06-29 14:05:00,76.1,37.8,29.59,ESE,122,2.0,5.4,25,0.00,,,-99.99,FreeWX 2.04,2013-06-29 18:05:00,
2013-06-29 14:10:00,75.4,36.1,29.59,SE,124,2.0,6.7,24,0.00,,,-99.99,FreeWX 2.04,2013-06-29 18:10:00,
2013-06-29 14:15:00,74.7,36.5,29.59,ESE,105,4.0,7.4,25,0.00,,,-99.99,FreeWX 2.04,2013-06-29 18:15:00,
2013-06-29 14:20:00,74.8,37.6,29.59,ESE,112,3.0,6.3,26,0.00,,,-99.99,FreeWX 2.04,2013-06-29 18:20:00,
2013-06-29 14:25:00,75.9,36.5,29.59,ESE,114,2.0,8.3,24,0.00,,,-99.99,FreeWX 2.04,2013-06-29 18:25:00,
2013-06-29 14:30:00,75.7,37.4,29.59,East,99,2.0,8.3,25,0.00,,,-99.99,FreeWX 2.04,2013-06-29 18:30:00,
2013-06-29 14:35:00,77.0,37.4,29.59,East,86,1.0,4.5,24,0.00,,,-99.99,FreeWX 2.04,2013-06-29 18:35:00,
2013-06-29 14:40:00,75.7,36.3,29.59,East,91,2.0,8.3,24,0.00,,,-99.99,FreeWX 2.04,2013-06-29 18:40:00,
2013-06-29 14:45:00,75.7,37.4,29.59,East,99,3.0,8.3,25,0.00,,,-99.99,FreeWX 2.04,2013-06-29 18:45:00,
2013-06-29 14:50:00,76.1,37.8,29.59,ESE,104,2.0,5.8,25,0.00,,,-99.99,FreeWX 2.04,2013-06-29 18:50:00,
2013-06-29 14:55:00,76.1,36.7,29.59,ESE,102,2.0,6.9,24,0.00,,,-99.99,FreeWX 2.04,2013-06-29 18:55:00,
2013-06-29 15:00:00,75.6,36.1,29.59,East,92,3.0,6.9,24,0.00,,,-99.99,FreeWX 2.04,2013-06-29 19:00:00,
2013-06-29 15:05:00,75.6,38.3,29.59,East,98,3.0,7.8,26,0.00,,,-99.99,FreeWX 2.04,2013-06-29 19:05:00,
2013-06-29 15:10:00,75.2,36.9,29.59,ESE,108,4.0,9.6,25,0.00,,,-99.99,FreeWX 2.04,2013-06-29 19:10:00,
2013-06-29 15:15:00,75.9,38.5,29.59,East,96,3.0,6.7,26,0.00,,,-99.99,FreeWX 2.04,2013-06-29 19:15:00,
2013-06-29 15:20:00,76.8,38.3,29.59,ESE,111,1.0,6.3,25,0.00,,,-99.99,FreeWX 2.04,2013-06-29 19:20:00,
2013-06-29 15:25:00,77.5,37.9,29.59,ESE,119,1.0,4.9,24,0.00,,,-99.99,FreeWX 2.04,2013-06-29 19:25:00,
2013-06-29 15:30:00,78.1,34.9,29.59,ESE,118,1.0,6.9,21,0.00,,,-99.99,FreeWX 2.04,2013-06-29 19:30:00,
2013-06-29 15:35:00,77.7,37.0,29.59,SE,126,1.0,4.9,23,0.00,,,-99.99,FreeWX 2.04,2013-06-29 19:35:00,
2013-06-29 15:40:00,77.5,35.6,29.59,ESE,103,2.0,6.3,22,0.00,,,-99.99,FreeWX 2.04,2013-06-29 19:40:00,
2013-06-29 15:45:00,76.5,36.0,29.59,East,83,2.0,6.7,23,0.00,,,-99.99,FreeWX 2.04,2013-06-29 19:45:00,
2013-06-29 15:50:00,75.9,36.5,29.59,East,89,2.0,6.3,24,0.00,,,-99.99,FreeWX 2.04,2013-06-29 19:50:00,
2013-06-29 15:55:00,75.6,36.1,29.62,ESE,103,1.0,3.6,24,0.00,,,-99.99,FreeWX 2.04,2013-06-29 19:55:00,
2013-06-29 16:00:00,75.4,36.1,29.62,North,-999,0.0,4.5,24,0.00,,,-99.99,FreeWX 2.04,2013-06-29 20:00:00,
2013-06-29 16:05:00,75.0,36.9,29.62,North,-999,0.0,3.6,25,0.00,,,-99.99,FreeWX 2.04,2013-06-29 20:05:00,
2013-06-29 16:10:00,75.0,36.9,29.62,North,-999,0.0,6.3,25,0.00,,,-99.99,FreeWX 2.04,2013-06-29 20:10:00,
2013-06-29 16:15:00,74.7,37.4,29.62,North,-999,0.0,0.0,26,0.00,,,-99.99,FreeWX 2.04,2013-06-29 20:15:00,
2013-06-29 16:20:00,75.0,37.8,29.62,North,-999,0.0,4.0,26,0.00,,,-99.99,FreeWX 2.04,2013-06-29 20:20:00,
2013-06-29 16:25:00,74.8,36.7,29.62,North,-999,0.0,4.0,25,0.00,,,-99.99,FreeWX 2.04,2013-06-29 20:25:00,
2013-06-29 16:30:00,74.8,35.6,29.62,ESE,115,1.0,4.5,24,0.00,,,-99.99,FreeWX 2.04,2013-06-29 20:30:00,
2013-06-29 16:35:00,74.7,36.5,29.62,ESE,113,1.0,4.0,25,0.00,,,-99.99,FreeWX 2.04,2013-06-29 20:35:00,
2013-06-29 16:40:00,74.5,36.3,29.62,ESE,111,1.0,3.6,25,0.00,,,-99.99,FreeWX 2.04,2013-06-29 20:40:00,
2013-06-29 16:45:00,74.7,36.5,29.62,ESE,112,1.0,4.9,25,0.00,,,-99.99,FreeWX 2.04,2013-06-29 20:45:00,
2013-06-29 16:50:00,74.3,36.1,29.62,ESE,109,1.0,6.7,25,0.00,,,-99.99,FreeWX 2.04,2013-06-29 20:50:00,
2013-06-29 16:55:00,74.3,37.2,29.62,ESE,110,1.0,4.9,26,0.00,,,-99.99,FreeWX 2.04,2013-06-29 20:55:00,
2013-06-29 17:00:00,73.6,37.6,29.62,ESE,108,1.0,6.3,27,0.00,,,-99.99,FreeWX 2.04,2013-06-29 21:00:00,
2013-06-29 17:05:00,73.2,38.1,29.62,East,99,2.0,6.3,28,0.00,,,-99.99,FreeWX 2.04,2013-06-29 21:05:00,
2013-06-29 17:10:00,73.4,40.1,29.62,ESE,106,2.0,5.8,30,0.00,,,-99.99,FreeWX 2.04,2013-06-29 21:10:00,
2013-06-29 17:15:00,73.4,38.3,29.62,ESE,111,2.0,4.0,28,0.00,,,-99.99,FreeWX 2.04,2013-06-29 21:15:00,
2013-06-29 17:20:00,73.2,39.0,29.62,ESE,118,1.0,4.5,29,0.00,,,-99.99,FreeWX 2.04,2013-06-29 21:20:00,
2013-06-29 17:25:00,72.5,37.6,29.62,ESE,121,2.0,6.7,28,0.00,,,-99.99,FreeWX 2.04,2013-06-29 21:25:00,
2013-06-29 17:30:00,72.1,38.1,29.62,ESE,113,1.0,4.0,29,0.00,,,-99.99,FreeWX 2.04,2013-06-29 21:30:00,
2013-06-29 17:35:00,72.5,40.1,29.62,North,-999,0.0,0.0,31,0.00,,,-99.99,FreeWX 2.04,2013-06-29 21:35:00,
2013-06-29 17:40:00,73.0,40.6,29.62,North,-999,0.0,0.0,31,0.00,,,-99.99,FreeWX 2.04,2013-06-29 21:40:00,
2013-06-29 17:45:00,73.0,40.6,29.62,North,-999,0.0,4.0,31,0.00,,,-99.99,FreeWX 2.04,2013-06-29 21:45:00,
2013-06-29 17:50:00,72.9,40.5,29.62,SE,124,1.0,4.5,31,0.00,,,-99.99,FreeWX 2.04,2013-06-29 21:50:00,
2013-06-29 17:55:00,72.5,40.1,29.62,SE,127,1.0,5.4,31,0.00,,,-99.99,FreeWX 2.04,2013-06-29 21:55:00,
2013-06-29 18:00:00,72.5,40.1,29.62,North,-999,0.0,2.7,31,0.00,,,-99.99,FreeWX 2.04,2013-06-29 22:00:00,
2013-06-29 18:05:00,72.5,40.1,29.62,North,-999,0.0,4.9,31,0.00,,,-99.99,FreeWX 2.04,2013-06-29 22:05:00,
2013-06-29 18:10:00,72.9,40.5,29.62,North,-999,0.0,4.0,31,0.00,,,-99.99,FreeWX 2.04,2013-06-29 22:10:00,
2013-06-29 18:15:00,73.0,40.6,29.62,North,-999,0.0,0.0,31,0.00,,,-99.99,FreeWX 2.04,2013-06-29 22:15:00,
2013-06-29 18:20:00,73.2,40.8,29.62,North,-999,0.0,0.0,31,0.00,,,-99.99,FreeWX 2.04,2013-06-29 22:20:00,
2013-06-29 18:25:00,73.4,41.0,29.62,North,-999,0.0,3.6,31,0.00,,,-99.99,FreeWX 2.04,2013-06-29 22:25:00,
2013-06-29 18:30:00,73.2,40.8,29.62,North,-999,0.0,4.0,31,0.00,,,-99.99,FreeWX 2.04,2013-06-29 22:30:00,
2013-06-29 18:35:00,72.7,39.4,29.62,North,-999,0.0,4.9,30,0.00,,,-99.99,FreeWX 2.04,2013-06-29 22:35:00,
2013-06-29 18:40:00,72.3,39.9,29.62,North,-999,0.0,0.0,31,0.00,,,-99.99,FreeWX 2.04,2013-06-29 22:40:00,
2013-06-29 18:45:00,72.3,40.8,29.62,North,-999,0.0,0.0,32,0.00,,,-99.99,FreeWX 2.04,2013-06-29 22:45:00,
2013-06-29 18:50:00,72.3,40.8,29.62,North,-999,0.0,0.0,32,0.00,,,-99.99,FreeWX 2.04,2013-06-29 22:50:00,
2013-06-29 18:55:00,72.5,41.0,29.62,North,-999,0.0,0.0,32,0.00,,,-99.99,FreeWX 2.04,2013-06-29 22:55:00,
2013-06-29 19:00:00,72.7,41.2,29.62,North,-999,0.0,0.0,32,0.00,,,-99.99,FreeWX 2.04,2013-06-29 23:00:00,
2013-06-29 19:05:00,72.5,41.0,29.62,North,-999,0.0,0.0,32,0.00,,,-99.99,FreeWX 2.04,2013-06-29 23:05:00,
2013-06-29 19:10:00,72.3,41.5,29.62,North,-999,0.0,0.0,33,0.00,,,-99.99,FreeWX 2.04,2013-06-29 23:10:00,
2013-06-29 19:15:00,72.3,41.5,29.62,North,-999,0.0,0.0,33,0.00,,,-99.99,FreeWX 2.04,2013-06-29 23:15:00,
2013-06-29 19:20:00,72.3,41.5,29.62,North,-999,0.0,0.0,33,0.00,,,-99.99,FreeWX 2.04,2013-06-29 23:20:00,
2013-06-29 19:30:00,72.0,40.5,29.62,North,-999,0.0,0.0,32,0.00,,,-99.99,FreeWX 2.04,2013-06-29 23:30:00,
2013-06-29 19:35:00,71.1,39.7,29.62,North,-999,0.0,0.0,32,0.00,,,-99.99,FreeWX 2.04,2013-06-29 23:35:00,
2013-06-29 19:40:00,70.2,39.7,29.62,North,-999,0.0,0.0,33,0.00,,,-99.99,FreeWX 2.04,2013-06-29 23:40:00,
2013-06-29 19:45:00,69.8,40.1,29.62,North,-999,0.0,0.0,34,0.00,,,-99.99,FreeWX 2.04,2013-06-29 23:45:00,
2013-06-29 19:50:00,69.4,39.9,29.62,North,-999,0.0,0.0,34,0.00,,,-99.99,FreeWX 2.04,2013-06-29 23:50:00,
2013-06-29 19:55:00,69.1,40.3,29.65,North,-999,0.0,0.0,35,0.00,,,-99.99,FreeWX 2.04,2013-06-29 23:55:00,
2013-06-29 20:00:00,68.7,40.6,29.65,North,-999,0.0,0.0,36,0.00,,,-99.99,FreeWX 2.04,2013-06-30 00:00:00,
2013-06-29 20:05:00,68.7,41.4,29.65,North,-999,0.0,0.0,37,0.00,,,-99.99,FreeWX 2.04,2013-06-30 00:05:00,
2013-06-29 20:10:00,68.7,40.6,29.65,North,-999,0.0,0.0,36,0.00,,,-99.99,FreeWX 2.04,2013-06-30 00:10:00,
2013-06-29 20:15:00,68.2,40.3,29.65,North,-999,0.0,0.0,36,0.00,,,-99.99,FreeWX 2.04,2013-06-30 00:15:00,
2013-06-29 20:20:00,67.6,40.5,29.65,North,-999,0.0,0.0,37,0.00,,,-99.99,FreeWX 2.04,2013-06-30 00:20:00,
2013-06-29 20:25:00,67.5,41.0,29.65,North,-999,0.0,0.0,38,0.00,,,-99.99,FreeWX 2.04,2013-06-30 00:25:00,
2013-06-29 20:30:00,67.3,40.8,29.65,North,-999,0.0,0.0,38,0.00,,,-99.99,FreeWX 2.04,2013-06-30 00:30:00,
2013-06-29 20:35:00,66.7,41.0,29.65,North,-999,0.0,0.0,39,0.00,,,-99.99,FreeWX 2.04,2013-06-30 00:35:00,
2013-06-29 20:40:00,66.6,41.5,29.65,North,-999,0.0,0.0,40,0.00,,,-99.99,FreeWX 2.04,2013-06-30 00:40:00,
2013-06-29 20:45:00,66.6,42.1,29.65,North,-999,0.0,0.0,41,0.00,,,-99.99,FreeWX 2.04,2013-06-30 00:45:00,
2013-06-29 20:50:00,66.2,41.7,29.65,North,-999,0.0,0.0,41,0.00,,,-99.99,FreeWX 2.04,2013-06-30 00:50:00,
2013-06-29 20:55:00,65.8,41.5,29.65,North,-999,0.0,0.0,41,0.00,,,-99.99,FreeWX 2.04,2013-06-30 00:55:00,
2013-06-29 21:00:00,65.7,41.9,29.65,North,-999,0.0,0.0,42,0.00,,,-99.99,FreeWX 2.04,2013-06-30 01:00:00,
2013-06-29 21:05:00,65.5,42.4,29.65,North,-999,0.0,0.0,43,0.00,,,-99.99,FreeWX 2.04,2013-06-30 01:05:00,
2013-06-29 21:10:00,65.1,42.1,29.65,North,-999,0.0,0.0,43,0.00,,,-99.99,FreeWX 2.04,2013-06-30 01:10:00,
2013-06-29 21:15:00,64.9,42.4,29.65,North,-999,0.0,0.0,44,0.00,,,-99.99,FreeWX 2.04,2013-06-30 01:15:00,
2013-06-29 21:20:00,64.6,42.3,29.65,North,-999,0.0,0.0,44,0.00,,,-99.99,FreeWX 2.04,2013-06-30 01:20:00,
2013-06-29 21:25:00,64.4,42.6,29.65,North,-999,0.0,0.0,45,0.00,,,-99.99,FreeWX 2.04,2013-06-30 01:25:00,
2013-06-29 21:30:00,64.0,42.3,29.65,North,-999,0.0,0.0,45,0.00,,,-99.99,FreeWX 2.04,2013-06-30 01:30:00,
2013-06-29 21:35:00,63.9,42.6,29.65,North,-999,0.0,0.0,46,0.00,,,-99.99,FreeWX 2.04,2013-06-30 01:35:00,
2013-06-29 21:40:00,63.7,43.0,29.65,North,-999,0.0,0.0,47,0.00,,,-99.99,FreeWX 2.04,2013-06-30 01:40:00,
2013-06-29 21:45:00,63.3,43.9,29.65,North,-999,0.0,0.0,49,0.00,,,-99.99,FreeWX 2.04,2013-06-30 01:45:00,
2013-06-29 21:50:00,63.1,43.7,29.65,North,-999,0.0,0.0,49,0.00,,,-99.99,FreeWX 2.04,2013-06-30 01:50:00,
2013-06-29 21:55:00,63.0,44.6,29.68,North,-999,0.0,0.0,51,0.00,,,-99.99,FreeWX 2.04,2013-06-30 01:55:00,
2013-06-29 22:00:00,62.8,45.0,29.68,North,-999,0.0,0.0,52,0.00,,,-99.99,FreeWX 2.04,2013-06-30 02:00:00,
2013-06-29 22:05:00,62.6,44.8,29.68,North,-999,0.0,0.0,52,0.00,,,-99.99,FreeWX 2.04,2013-06-30 02:05:00,
2013-06-29 22:10:00,62.6,45.7,29.68,North,-999,0.0,0.0,54,0.00,,,-99.99,FreeWX 2.04,2013-06-30 02:10:00,
2013-06-29 22:15:00,62.4,45.5,29.68,North,-999,0.0,0.0,54,0.00,,,-99.99,FreeWX 2.04,2013-06-30 02:15:00,
2013-06-29 22:20:00,62.2,45.9,29.68,North,-999,0.0,0.0,55,0.00,,,-99.99,FreeWX 2.04,2013-06-30 02:20:00,
2013-06-29 22:25:00,62.2,46.4,29.68,North,-999,0.0,0.0,56,0.00,,,-99.99,FreeWX 2.04,2013-06-30 02:25:00,
2013-06-29 22:30:00,62.2,46.8,29.68,North,-999,0.0,0.0,57,0.00,,,-99.99,FreeWX 2.04,2013-06-30 02:30:00,
2013-06-29 22:35:00,62.1,46.6,29.68,North,-999,0.0,0.0,57,0.00,,,-99.99,FreeWX 2.04,2013-06-30 02:35:00,
2013-06-29 22:45:00,61.7,47.3,29.68,North,-999,0.0,0.0,59,0.00,,,-99.99,FreeWX 2.04,2013-06-30 02:45:00,